Location: LDNL
(36.4545°S, 141.6685°E)
Time: 03:35:31
(UTC+11:00)

Vanguard 2 - Pass Details

Date: 12 August 2022
Orbit: 552 x 2934 km, 32.9° (Epoch: 06 October)

Event Time Altitude Azimuth Distance (km) Brightness Sun altitude
Rises 16:59:32 0° 305° (NW) 6,781 14.5 9.9°
Reaches altitude 10° 17:04:15 10° 308° (NW) 5,735 14.2 9.0°
Maximum altitude 17:20:55 57° 20° (NNE) 2,756 10.5 6.0°
Drops below altitude 10° 17:32:31 10° 94° (E) 4,135 10.7 3.9°
Sets 17:35:20 0° 98° (E) 4,847 11.0 3.3°
